This is the latest recevied weather packets stored in our database for station/object ZL3GL-4. If no packets are shown the sender has not sent any weather packets the latest 10 day(s).
| Time | Temp. | Humidity | Pressure | Rain* | Wind** | Luminosity | Snow |
|---|---|---|---|---|---|---|---|
| 1788141672 | 52° F | 61% | 746.5 mmHg | 0 in | 6 mph, 180° | - | - |
| 1788140827 | 53° F | 60% | 746 mmHg | 0 in | 6 mph, 180° | - | - |
| 1788139983 | 51° F | 65% | 746.1 mmHg | 0 in | 5 mph, 248° | - | - |
| 1788139135 | 51° F | 66% | 745.9 mmHg | 0 in | 9 mph, 180° | - | - |
| 1788138292 | 50° F | 65% | 745.7 mmHg | 0 in | 10 mph, 211° | - | - |
| 1788137446 | 49° F | 67% | 746.2 mmHg | 0 in | 7 mph, 236° | - | - |
| 1788136604 | 49° F | 68% | 746 mmHg | 0 in | 10 mph, 217° | - | - |
| 1788135760 | 49° F | 70% | 746 mmHg | 0 in | 7 mph, 180° | - | - |
| 1788134914 | 47° F | 63% | 746.5 mmHg | 0 in | 12 mph, 224° | - | - |
| 1788133229 | 48° F | 71% | 746.9 mmHg | 0 in | 15 mph, 184° | - | - |
| 1788132383 | 50° F | 76% | 746.6 mmHg | 0 in | 10 mph, 186° | - | - |
| 1788130696 | 52° F | 73% | 745.9 mmHg | 0 in | 6 mph, 190° | - | - |
| 1788129852 | 52° F | 76% | 745.3 mmHg | 0 in | 4 mph, 347° | - | - |
| 1788129007 | 52° F | 76% | 745.3 mmHg | 0 in | 4 mph, 32° | - | - |
| 1788128163 | 53° F | 71% | 745.2 mmHg | 0 in | 7 mph, 58° | - | - |
| 1788127320 | 53° F | 70% | 745.1 mmHg | 0 in | 8 mph, 24° | - | - |
| 1788126474 | 54° F | 73% | 745.1 mmHg | 0 in | 7 mph, 353° | - | - |
| 1788125630 | 53° F | 72% | 745.3 mmHg | 0 in | 6 mph, 10° | - | - |
| 1788124784 | 52° F | 79% | 745.1 mmHg | 0 in | 5 mph, 318° | - | - |
| 1788123938 | 51° F | 80% | 745 mmHg | 0 in | 5 mph, 1° | - | - |
| 1788123094 | 50° F | 86% | 745.2 mmHg | 0 in | 4 mph, 18° | - | - |
| 1788122248 | 49° F | 93% | 745.3 mmHg | 0 in | 4 mph, 325° | - | - |
| 1788121404 | 47° F | 96% | 745 mmHg | 0 in | 2 mph, 357° | - | - |
| 1788120559 | 46° F | 97% | 745.1 mmHg | 0 in | 1 mph, 326° | - | - |
| 1788119716 | 44° F | 96% | 745.2 mmHg | 0 in | 1 mph, 308° | - | - |
* Rain latest hour (hover to see other rain measurements)
** Current wind speed in m/s (hover to see current wind gust speed)